Theta_e
317 311 310 311 314 317 320 321 318 313 313 313 311 316 324 321 319 319 314 315 319 319 322 326 325 323 322 321 321 322 323 321 318 315 317 317 317 316 316 317 320 320 320 321 321 323 324 322 322 322 321 321 322 322 321 321 323 326 326 325 326 331 332 326 327 335 336 333 334 330 328 329 328 327 328 329 331 332 336 336 335 336 336 338 340 340 352
314 309 309 311 312 316 320 321 319 314 311 310 312 318 319 316 319 320 314 316 318 320 324 327 327 326 324 321 320 321 320 319 317 317 318 319 317 314 316 316 317 318 319 321 321 323 324 322 322 325 323 321 322 322 321 321 323 327 328 327 323 326 332 333 333 336 337 340 342 334 328 329 329 329 332 335 338 336 332 334 339 339 333 332 334 336 346
311 309 310 310 312 316 319 322 320 315 311 310 312 317 320 319 321 322 320 320 319 324 327 326 327 327 322 321 320 319 320 318 317 318 318 319 317 315 315 315 315 317 318 320 322 324 326 325 326 324 323 323 323 322 323 322 323 330 334 333 329 327 334 339 335 330 330 332 333 330 329 329 328 331 336 343 347 338 326 326 330 331 330 331 334 339 350
310 310 310 310 312 315 319 322 322 315 311 311 311 314 320 321 323 324 325 326 323 325 326 322 322 322 319 322 322 320 319 317 317 320 317 317 317 316 316 316 315 317 319 321 324 325 325 327 327 325 325 326 323 322 326 324 329 340 339 334 336 335 335 340 337 331 331 333 333 334 333 328 328 335 341 347 350 345 334 325 323 328 331 335 345 353 357
310 309 310 310 312 316 319 322 323 316 311 310 313 318 322 323 326 324 324 331 331 328 328 324 322 322 321 324 324 320 318 317 317 319 317 318 319 316 316 315 314 317 320 322 323 323 327 329 329 326 327 328 324 323 325 323 334 345 334 331 341 336 329 334 334 329 330 332 332 331 331 332 335 341 343 346 349 351 347 335 329 335 334 336 356 363 353
310 309 310 310 312 316 319 322 323 317 311 311 316 326 327 323 327 325 322 331 335 331 331 329 326 325 325 325 323 318 317 318 317 317 318 318 318 318 318 315 315 317 321 324 323 323 328 331 331 329 330 329 327 327 327 324 332 334 325 330 340 333 327 329 328 326 328 330 332 331 334 340 343 343 344 347 348 349 350 347 346 346 338 339 357 362 354
309 309 310 310 312 315 318 322 323 317 312 314 318 325 327 324 327 328 325 328 331 330 330 330 328 328 328 329 326 319 318 320 318 317 319 318 318 322 322 319 318 319 325 330 325 322 326 328 329 329 329 328 327 329 330 329 332 329 323 329 333 329 331 332 328 328 328 329 335 336 337 342 344 345 346 347 348 348 348 349 351 351 349 352 358 360 359
309 309 310 310 311 314 316 321 323 318 313 317 321 322 324 328 330 329 327 330 333 332 331 331 330 330 328 329 327 322 318 319 318 317 320 321 320 322 322 320 319 319 326 329 320 322 333 334 332 330 328 330 332 330 328 329 333 331 325 327 328 325 330 338 337 333 329 330 335 335 336 341 342 345 348 347 349 351 349 348 351 354 357 358 358 358 359
309 310 310 310 311 313 315 318 321 320 313 315 321 323 321 323 325 325 328 336 339 335 332 331 331 332 330 327 326 326 322 321 320 318 321 322 321 321 320 320 321 320 325 325 317 324 336 333 329 331 330 333 334 331 327 327 330 332 328 328 329 326 331 344 345 336 329 329 331 332 335 338 338 340 346 349 351 351 348 346 347 351 355 356 355 356 358
309 309 310 310 311 312 313 315 318 321 316 311 317 322 319 318 323 325 328 337 342 337 333 331 331 333 333 328 327 327 325 324 321 321 324 322 319 321 318 319 326 326 325 325 319 320 325 320 318 322 325 326 328 329 329 327 329 334 330 327 330 328 329 336 339 336 332 331 332 335 338 343 343 341 342 346 350 349 348 347 345 346 351 355 356 355 355
309 309 310 310 311 311 313 314 315 319 318 315 315 317 316 316 321 326 330 338 343 338 335 334 332 330 330 328 327 326 324 324 323 325 328 321 316 320 318 319 327 327 324 325 322 319 319 317 315 316 316 317 320 322 324 324 328 333 330 325 330 340 343 340 336 334 333 336 339 341 344 347 346 343 342 346 347 347 349 348 343 344 348 351 353 353 352
309 309 310 310 311 311 312 313 315 316 317 317 316 315 314 313 317 325 332 337 340 338 336 335 331 327 327 326 325 325 324 324 323 325 327 321 316 319 319 321 326 326 324 323 320 319 319 319 322 320 315 317 319 318 321 324 325 329 328 323 330 343 349 346 340 334 334 341 345 342 344 347 344 340 342 343 342 342 346 346 343 344 347 347 347 348 348
309 309 310 310 310 310 311 312 314 315 316 318 318 317 315 312 317 327 332 333 337 337 333 331 328 325 326 325 324 325 324 322 323 323 322 320 319 319 320 323 326 323 320 320 323 326 324 325 329 325 325 336 338 330 329 330 327 327 326 326 334 342 344 346 344 335 335 344 345 339 342 347 343 338 337 338 340 344 348 348 345 343 345 345 346 346 345
309 309 309 310 310 310 311 312 313 314 316 317 318 320 318 313 316 326 330 332 336 334 330 332 331 326 325 324 325 325 324 325 325 324 322 322 321 320 318 319 320 317 318 326 333 332 327 330 331 326 329 342 341 334 334 331 327 327 323 325 337 343 344 350 346 336 338 346 345 340 340 341 342 342 338 336 338 342 346 349 346 343 344 345 344 345 345
309 309 309 310 309 309 311 312 312 314 316 317 318 320 319 313 313 320 326 330 334 332 331 333 331 326 324 324 325 326 328 330 329 326 326 324 320 318 318 317 315 315 319 329 335 333 326 325 326 324 327 329 325 327 334 330 327 328 326 331 339 335 335 345 343 337 343 348 346 344 343 341 344 347 342 336 335 337 342 346 344 342 344 343 342 344 345
309 309 309 310 310 310 311 312 312 313 315 317 318 319 317 313 311 316 322 328 331 330 329 326 322 321 324 325 326 327 329 331 330 331 335 334 324 318 319 317 314 315 322 330 336 335 327 323 325 328 332 331 325 325 329 329 328 331 332 338 340 335 339 348 344 338 342 347 347 347 343 345 352 352 342 336 335 335 339 344 341 341 343 342 341 343 344
309 308 309 310 310 311 312 312 312 313 314 315 317 319 318 314 314 317 323 328 330 330 328 322 319 324 328 328 327 328 328 329 329 329 334 337 331 321 317 318 318 317 321 328 332 330 327 326 327 327 331 336 331 326 326 326 327 329 333 336 338 339 344 346 341 338 341 344 347 345 340 343 351 351 343 338 336 336 341 345 342 341 342 343 341 342 343
308 308 309 309 310 311 312 313 313 313 313 315 317 318 318 317 315 316 322 328 330 331 330 323 320 325 327 324 324 325 326 328 330 330 332 335 334 327 320 321 324 321 322 330 332 328 325 326 329 331 334 334 329 328 328 325 325 329 331 331 335 341 344 343 341 341 342 342 342 341 343 346 348 349 347 340 339 343 346 346 345 344 343 343 341 341 342
308 308 308 309 310 311 312 314 314 314 313 314 316 318 319 317 314 314 319 326 330 330 328 323 321 322 320 317 319 320 321 324 328 329 328 330 335 334 327 325 328 328 328 332 333 329 327 329 334 340 337 331 330 333 328 322 326 332 329 328 333 338 339 340 340 339 341 345 344 340 342 346 345 345 343 337 341 348 346 343 346 347 344 343 341 339 340
307 308 308 309 310 310 312 313 315 315 314 314 315 318 318 317 315 316 319 324 328 328 325 322 320 320 317 315 316 316 316 320 325 327 326 328 337 340 331 326 330 331 329 328 325 324 327 331 336 337 333 332 336 334 326 324 328 331 330 332 335 338 339 338 337 338 339 342 342 339 341 345 342 339 340 339 344 348 343 340 344 345 344 344 342 340 340
307 307 308 308 309 309 311 313 314 315 315 316 316 317 317 316 315 314 315 319 324 328 328 324 320 320 318 315 315 314 313 315 319 322 325 331 339 340 332 330 333 333 332 331 329 328 330 333 336 335 333 335 335 327 324 326 324 324 332 337 334 335 342 340 336 339 341 340 338 340 346 349 343 340 343 343 341 341 340 340 342 342 342 344 343 341 340
307 307 308 308 308 308 309 312 314 315 315 316 316 316 317 318 315 313 314 317 320 325 327 324 321 320 318 318 318 317 315 315 316 316 321 331 340 340 338 338 335 331 335 343 342 337 335 336 337 336 336 337 335 331 328 328 325 323 328 333 332 335 343 343 336 334 339 342 341 338 339 338 336 338 341 340 337 337 337 338 341 341 341 342 343 342 341
307 307 308 308 308 308 308 310 313 314 315 316 316 315 317 318 317 315 317 319 320 323 322 320 320 322 321 320 320 319 317 318 318 317 320 329 338 337 336 336 332 332 344 354 351 343 337 336 338 339 338 338 337 336 333 330 332 334 329 327 331 334 340 345 340 333 335 340 337 333 332 332 331 333 335 335 336 337 337 338 341 341 341 342 342 343 343
307 308 308 309 309 309 308 310 312 314 315 316 316 316 316 318 317 316 319 322 324 325 325 323 323 325 325 321 320 320 319 318 319 320 320 327 335 334 331 329 330 335 341 343 345 344 338 336 339 341 339 337 336 339 337 329 332 341 336 327 328 332 337 342 340 336 338 338 332 330 332 331 330 331 330 331 333 334 335 338 339 340 341 343 343 343 344
307 308 309 308 308 308 309 309 311 313 315 316 316 316 316 318 317 315 317 322 324 324 327 328 326 323 322 322 320 319 319 319 320 321 320 322 329 332 330 326 328 332 334 335 343 345 337 336 339 337 336 337 335 338 340 334 333 339 335 329 331 335 336 336 336 338 341 337 332 332 332 330 332 332 330 331 332 331 332 333 333 334 336 337 338 341 343
307 308 308 308 309 309 309 310 311 313 315 316 316 316 316 318 318 316 315 318 322 323 326 330 330 323 322 323 320 317 319 321 321 322 320 320 322 325 326 325 324 327 334 340 347 344 337 336 335 332 335 339 335 336 339 337 335 336 331 329 336 338 333 334 337 338 336 332 330 333 333 331 333 333 332 333 333 332 333 332 329 330 331 331 333 335 337
307 308 308 309 310 311 311 311 312 314 316 316 316 317 317 317 319 318 316 317 322 325 327 329 329 325 321 320 318 317 320 322 321 321 321 320 320 320 322 328 333 334 334 337 339 339 337 333 332 337 342 337 332 337 343 340 339 341 334 328 333 335 333 333 335 335 335 334 333 333 332 331 331 331 332 332 330 330 332 332 332 332 331 331 331 330 330
307 308 308 309 310 311 312 312 314 315 316 316 316 317 317 317 318 319 317 316 319 324 327 326 325 324 323 321 319 317 320 321 320 321 320 319 321 321 321 329 339 340 335 334 334 335 334 332 334 342 343 335 332 337 339 338 343 346 340 334 336 338 334 331 331 333 335 335 334 334 334 332 330 331 332 331 330 331 332 331 332 333 331 329 330 330 330
307 308 308 308 310 311 312 313 314 314 314 315 316 316 317 318 318 318 318 316 316 320 323 325 326 326 326 323 318 316 318 320 320 321 319 317 320 320 318 324 335 337 336 336 334 333 337 339 340 340 337 335 337 335 330 334 340 339 336 337 339 338 333 329 332 336 335 333 333 333 332 331 330 331 332 330 328 330 332 331 332 331 328 326 328 329 329
308 309 308 308 310 311 312 313 313 313 314 315 316 317 319 321 319 317 318 317 317 319 323 326 327 326 324 321 317 316 318 320 320 320 319 319 321 320 318 325 333 335 336 336 331 333 338 336 335 337 335 335 338 333 330 336 338 333 333 336 336 335 334 331 333 336 334 332 331 330 330 333 332 330 330 328 324 325 330 331 330 328 325 325 326 326 325
308 309 309 309 310 311 312 313 314 314 314 314 316 319 323 324 321 318 318 318 319 322 325 326 326 325 324 321 318 318 319 320 321 320 319 319 321 320 320 326 330 330 334 335 331 333 336 333 332 335 334 336 342 339 337 341 339 332 333 336 334 335 336 334 333 333 331 330 329 328 329 330 329 327 329 327 322 322 325 327 327 327 325 325 325 324 324
308 309 309 309 310 311 312 313 314 314 315 315 316 318 321 322 320 318 317 318 319 323 325 327 326 325 324 324 324 322 320 320 322 323 322 323 324 323 323 327 330 332 337 339 335 332 333 337 340 336 330 335 342 339 336 342 342 335 334 336 335 334 335 334 333 331 328 327 327 328 328 329 328 329 329 325 320 318 320 322 325 326 324 324 324 324 324
308 309 310 310 311 311 312 313 314 314 314 315 316 317 319 319 319 318 318 317 318 321 324 326 326 323 321 324 327 325 325 330 332 329 329 329 327 326 329 330 331 332 331 330 333 336 335 338 341 335 330 337 341 333 329 337 340 337 336 337 335 333 333 333 332 332 330 328 327 328 329 329 328 327 325 321 318 317 317 319 322 323 324 325 325 324 323
308 309 310 311 311 311 312 313 313 314 314 314 316 318 319 318 318 319 319 317 317 321 324 325 326 324 322 325 328 326 329 339 339 334 334 332 325 326 334 334 334 337 332 325 328 335 338 340 340 334 332 336 337 329 326 331 335 335 336 337 335 333 333 333 334 335 336 334 331 329 327 325 325 324 325 326 324 320 318 319 321 324 327 329 328 325 323
308 309 310 311 312 312 313 313 313 313 313 314 317 319 318 316 316 318 318 317 319 324 326 324 323 323 324 328 331 327 326 335 336 333 333 332 327 330 336 333 332 338 336 328 327 331 332 335 338 335 333 332 332 331 331 332 334 335 334 334 334 333 333 334 335 335 335 333 330 328 324 323 324 325 327 329 327 322 321 322 321 323 327 330 328 324 322
308 309 311 312 313 313 313 313 313 313 314 316 318 318 316 316 315 314 315 316 319 325 327 325 323 323 322 325 329 327 326 333 336 333 330 330 332 333 333 332 335 337 332 326 329 333 333 332 333 333 332 331 334 340 339 334 333 334 332 332 334 333 333 334 332 331 331 330 329 328 326 324 326 327 327 329 327 323 323 325 323 323 327 329 327 324 322
310 311 312 313 313 313 314 314 315 316 317 319 317 316 317 319 318 315 315 317 318 321 323 325 327 327 324 323 326 327 326 330 334 334 331 330 332 331 329 332 337 335 328 327 332 335 336 337 334 331 333 336 342 348 341 332 333 335 332 332 336 335 333 332 330 330 331 331 330 330 328 326 328 329 329 330 331 330 329 327 324 323 326 328 326 324 322
312 313 313 313 315 317 319 319 318 318 318 318 317 317 319 321 321 320 320 321 322 323 323 323 326 327 324 322 326 328 326 326 330 333 331 329 329 330 330 332 334 332 328 332 336 335 336 341 339 335 336 340 343 343 339 334 334 334 332 334 338 335 331 330 330 329 331 332 331 331 330 328 329 329 328 329 331 330 327 324 321 320 321 322 322 321 321
313 313 313 314 317 320 322 321 319 318 318 317 318 321 322 320 321 323 323 321 323 325 324 323 325 325 322 321 326 328 326 326 329 331 330 328 329 332 333 331 330 330 329 332 336 335 334 339 340 336 337 341 340 338 338 337 336 333 334 336 336 331 328 329 330 328 329 330 329 328 327 327 328 329 330 329 328 326 322 319 319 320 320 320 320 320 320
314 314 316 318 319 319 320 319 318 318 319 318 318 321 322 321 322 324 323 321 322 324 324 324 325 323 320 322 327 329 328 329 332 333 332 330 330 332 332 329 329 331 331 333 336 335 333 335 337 333 335 342 344 340 340 341 338 335 336 335 330 325 325 326 326 324 323 325 324 322 321 322 323 325 326 327 327 326 324 320 319 320 320 320 320 320 319
314 315 317 318 317 317 318 318 318 318 320 320 321 322 323 323 322 321 321 322 322 322 321 322 323 322 319 321 326 330 330 330 332 332 331 330 329 330 331 330 330 333 335 334 335 335 333 334 336 337 338 343 344 341 342 342 338 336 336 332 326 323 324 324 324 323 323 325 325 323 321 321 321 321 321 322 322 323 322 320 320 321 320 319 319 318 318
313 314 314 315 315 317 318 319 320 321 321 321 322 322 323 323 323 321 321 321 321 321 319 319 321 324 322 321 326 332 332 331 330 329 329 330 330 329 330 331 331 333 334 333 333 335 333 330 334 340 344 342 339 340 342 340 337 337 336 331 325 324 324 324 325 325 324 324 324 322 322 322 322 321 321 321 320 320 320 319 318 318 318 317 316 316 316
313 313 314 315 316 318 320 320 321 322 322 322 323 324 323 323 323 322 321 319 319 321 321 318 318 321 320 319 326 330 328 327 330 330 328 329 328 326 328 331 332 332 333 332 333 335 335 333 336 344 345 339 336 339 341 338 336 337 335 328 325 324 324 324 325 325 323 322 322 321 321 322 321 321 321 320 319 318 318 317 316 315 315 315 315 314 314
314 315 316 317 319 320 321 320 320 321 322 323 323 324 325 324 322 322 323 324 322 322 321 320 320 321 320 322 329 330 324 324 328 328 326 326 327 326 328 331 332 331 332 332 333 334 335 336 340 345 343 336 334 337 339 338 336 337 335 329 324 324 324 324 324 323 322 321 321 320 320 319 319 319 319 318 317 317 316 315 315 314 314 313 313 312 312
315 317 318 319 320 319 319 320 320 320 321 322 321 322 325 325 324 324 327 328 327 324 324 324 323 322 322 325 329 331 328 327 327 327 327 328 329 328 329 331 330 329 329 333 335 333 332 334 340 342 339 337 336 337 338 336 333 333 333 330 326 324 324 324 323 322 321 320 320 319 318 317 317 316 316 315 315 315 315 314 314 313 313 312 312 311 311
316 318 319 320 321 320 319 320 321 321 321 321 322 322 324 325 326 328 330 330 330 329 328 326 324 323 324 325 327 330 331 328 325 327 330 332 330 330 331 331 330 329 330 333 334 333 334 339 342 339 337 337 337 336 334 333 332 330 329 329 328 327 324 322 322 321 320 320 320 318 317 316 315 315 314 314 314 314 313 313 313 312 312 311 310 310 310
317 318 317 320 322 320 318 319 321 321 322 322 323 325 326 325 326 329 330 329 329 331 332 330 329 328 326 325 326 329 330 327 324 327 332 333 330 329 331 332 332 331 330 330 332 335 339 343 341 336 334 336 335 333 332 332 331 330 329 328 328 327 324 321 321 320 319 319 319 317 316 315 314 314 313 313 312 312 312 312 312 311 311 310 309 309 309
317 317 318 320 322 321 320 320 320 320 322 322 322 324 326 325 325 328 330 329 330 333 334 335 335 332 326 324 326 327 327 326 325 326 329 332 332 332 333 333 332 330 328 330 336 342 346 344 339 334 333 333 332 332 333 332 330 329 329 328 327 326 323 321 319 318 318 317 317 316 315 315 314 313 312 312 311 311 311 311 310 310 310 309 309 309 308
316 317 318 320 321 321 322 322 321 321 323 325 325 326 326 325 326 330 331 330 332 334 333 334 335 333 329 327 329 329 327 328 328 327 328 331 332 331 331 331 329 329 330 335 341 347 347 341 335 333 332 332 331 332 331 330 329 328 327 326 325 323 321 319 318 317 316 316 316 316 315 314 313 312 312 311 310 310 310 310 310 309 309 309 308 308 308
315 316 317 319 320 322 324 324 324 324 325 326 328 329 328 326 327 331 332 331 333 334 333 332 334 334 331 330 330 329 329 330 330 330 332 333 330 328 329 330 332 336 340 341 343 344 341 336 333 333 332 331 331 332 330 329 328 327 325 323 322 321 319 318 317 316 316 315 316 315 315 314 313 312 311 310 310 310 310 309 309 309 308 308 308 307 307
316 316 317 317 319 321 321 321 323 324 323 323 325 328 328 327 327 329 331 332 333 333 332 332 333 334 333 332 330 328 328 330 330 330 333 334 330 327 329 332 338 345 347 342 339 339 337 333 332 332 331 330 331 332 329 327 326 325 323 322 320 319 317 317 316 315 315 315 315 315 314 313 313 312 311 310 310 309 309 309 309 308 307 307 307 307 307
316 316 317 318 319 319 319 319 320 321 322 323 326 327 326 327 329 329 328 329 331 332 331 331 332 332 332 332 331 330 330 331 331 330 331 331 328 329 333 339 342 344 343 339 336 335 334 331 331 331 330 330 331 330 327 324 324 323 322 320 318 317 316 316 315 315 315 314 314 313 313 312 312 311 310 310 309 308 308 308 308 308 307 307 307 306 306
Wind_Speed
26 24 20 20 21 19 20 21 23 26 28 25 22 14 3 1 4 12 14 10 3 6 1 3 2 2 4 3 4 6 6 7 5 0 2 3 2 2 1 1 1 1 1 1 1 1 1 1 1 2 1 1 3 5 3 4 4 4 2 3 3 1 2 3 4 4 6 8 7 4 6 7 4 3 4 4 2 2 4 4 4 3 2 2 3 0 4
25 22 19 19 20 19 18 19 20 23 25 25 19 8 1 2 4 8 13 10 1 4 3 3 3 4 5 5 7 7 5 5 4 2 2 3 2 1 0 1 1 2 3 1 1 1 1 1 1 1 0 2 3 4 6 5 4 2 1 1 2 2 1 3 3 5 6 7 7 6 7 7 3 4 5 7 8 5 1 2 3 3 4 5 4 3 5
23 21 18 19 19 18 17 17 18 20 21 21 14 3 1 3 2 4 9 8 2 5 4 4 4 4 4 6 8 7 4 2 3 4 3 3 3 2 1 1 2 2 2 1 2 2 2 1 2 3 2 3 3 5 10 7 2 0 2 3 2 1 2 3 3 3 2 3 4 4 4 5 3 4 6 9 11 8 1 3 3 2 4 5 4 4 5
21 20 18 18 18 18 17 15 15 18 20 20 13 3 1 3 1 3 6 4 1 1 2 2 2 4 4 5 7 6 3 2 2 4 3 2 3 3 1 0 2 3 3 4 3 3 1 1 2 2 2 3 3 3 8 5 2 5 4 1 4 2 2 3 5 4 3 4 4 5 4 3 4 6 9 10 10 8 3 4 3 4 5 4 4 5 3
20 20 18 17 17 18 17 15 14 16 18 18 11 3 1 1 1 1 3 3 3 4 4 4 3 4 4 3 6 6 3 3 1 2 2 2 4 3 0 1 1 1 3 3 2 3 4 4 3 2 1 2 4 4 5 3 5 10 7 2 4 4 2 1 5 2 3 2 4 10 6 2 5 7 9 9 10 11 9 3 4 4 7 5 6 4 4
19 20 19 17 16 17 18 16 14 15 17 15 7 1 1 1 1 2 2 2 2 3 4 6 6 7 6 3 6 8 4 5 2 2 0 3 3 2 1 1 2 2 4 3 1 3 5 4 2 2 2 2 4 6 5 4 6 9 6 3 4 5 1 2 3 2 4 8 10 12 5 5 8 9 8 8 10 12 9 5 6 2 5 4 2 6 7
18 19 19 17 15 16 18 17 15 16 16 11 3 1 2 1 2 3 3 2 3 3 6 6 7 8 6 3 5 6 4 3 2 1 2 1 2 3 2 2 4 4 4 5 3 1 1 1 2 1 2 3 3 3 4 4 5 6 3 4 2 4 1 3 3 4 5 9 9 8 6 10 10 9 8 8 8 10 9 9 10 6 7 8 11 13 9
18 19 18 16 15 16 18 17 16 16 14 7 1 1 1 1 1 3 3 3 4 4 4 4 5 6 4 3 5 4 4 3 1 2 4 4 2 3 5 4 5 6 5 5 2 2 6 5 3 3 1 2 1 1 2 3 4 4 1 2 2 3 2 4 4 4 4 5 5 3 4 10 10 9 9 9 8 10 11 10 10 8 10 12 14 12 8
18 18 17 15 14 16 17 17 17 16 12 5 1 3 4 4 4 3 1 3 4 3 3 3 4 5 3 2 5 6 8 7 3 0 3 7 6 5 7 6 4 5 7 7 4 0 6 6 4 5 4 2 3 3 3 4 1 4 2 1 2 1 1 3 5 4 3 3 2 3 2 7 10 10 10 10 8 7 7 7 7 7 6 7 10 8 4
17 17 16 14 14 15 16 16 16 16 14 9 4 4 8 8 6 4 1 2 3 3 3 3 2 3 3 5 6 5 7 12 10 5 2 3 6 7 8 8 5 5 6 5 1 3 6 5 4 5 5 4 5 4 4 5 5 2 0 1 1 0 1 2 3 3 2 4 4 3 1 5 6 6 8 8 5 4 4 6 9 10 6 4 5 3 2
16 16 15 14 13 13 14 15 15 14 15 13 7 4 7 8 4 3 2 1 4 3 3 2 1 2 6 9 9 7 8 13 11 3 2 0 5 8 8 7 6 4 3 4 3 3 4 2 1 2 1 2 3 4 5 5 3 4 3 1 2 1 4 2 2 3 2 6 5 3 5 4 2 4 5 6 4 8 8 7 9 10 8 6 6 6 6
16 16 15 14 12 12 12 13 13 13 12 12 8 5 6 7 5 2 2 1 3 3 2 3 2 5 9 9 8 8 9 11 11 4 6 3 3 6 6 7 6 3 4 4 3 5 3 4 5 5 5 5 5 3 2 4 4 2 4 4 1 2 4 1 1 3 1 3 5 5 3 2 5 4 1 3 2 8 10 9 8 9 10 9 8 8 8
15 15 15 15 12 10 11 11 11 11 10 10 10 8 7 8 4 1 1 1 2 3 2 4 6 6 9 9 8 8 9 11 12 4 6 6 4 4 3 4 5 5 4 6 9 7 4 4 4 4 4 6 6 6 5 5 5 4 2 4 4 3 3 2 2 1 0 2 4 2 2 4 3 2 0 3 2 2 5 7 7 7 7 7 5 3 5
14 15 15 16 13 9 10 11 10 10 10 9 10 10 9 6 2 2 1 1 2 3 2 4 6 5 8 10 8 8 8 10 12 9 1 2 4 6 4 4 6 6 5 7 7 5 3 3 3 3 4 5 5 4 5 5 4 5 4 2 5 5 3 2 2 1 1 3 1 0 0 4 5 2 1 2 3 2 0 3 3 4 4 3 2 2 4
14 15 15 15 13 8 8 11 10 9 10 9 9 11 9 4 1 3 2 0 1 4 2 2 2 6 7 9 7 6 6 6 7 7 6 3 3 5 4 5 9 8 7 6 4 4 3 2 2 2 2 2 1 2 4 3 3 5 3 1 5 4 3 4 3 1 2 4 2 1 1 1 4 4 4 3 4 5 3 4 2 3 3 3 2 1 2
13 14 14 13 11 9 9 11 11 10 10 10 10 9 5 3 2 3 4 1 1 1 3 1 3 5 5 6 6 5 4 4 3 4 6 5 2 2 2 4 9 10 7 5 3 4 3 1 1 2 2 2 2 2 2 1 4 6 4 6 8 6 2 4 5 1 2 4 3 2 3 4 5 6 6 4 5 6 2 5 3 2 1 3 2 1 2
13 13 12 11 9 9 10 11 10 10 10 10 11 10 5 2 3 3 2 1 1 2 5 5 5 4 3 3 5 4 3 4 2 2 1 4 3 2 2 3 5 7 7 4 3 3 3 1 1 1 2 3 3 2 2 0 1 5 5 7 8 6 4 4 4 2 2 3 2 2 2 4 5 6 6 5 4 2 4 3 3 3 2 2 2 1 3
12 12 12 10 8 7 8 9 10 11 11 10 11 11 7 2 3 2 1 1 0 3 5 4 4 2 2 3 4 4 3 4 3 1 1 3 2 2 0 2 3 4 4 5 3 3 3 1 1 2 2 3 2 2 2 1 1 3 1 3 4 4 3 3 3 3 2 3 2 2 3 4 5 6 6 4 3 5 5 3 5 4 5 3 2 2 2
12 12 11 11 9 7 7 8 10 10 11 10 11 11 7 3 4 4 2 2 2 3 5 8 5 4 5 5 4 3 4 4 2 2 3 3 2 3 2 2 2 2 3 4 3 3 2 1 2 3 2 2 1 2 2 2 3 2 2 3 2 2 2 2 2 3 2 3 2 0 3 4 5 4 5 2 3 3 3 5 4 5 6 5 4 5 6
12 12 11 11 10 8 6 7 9 10 10 9 11 12 8 1 4 5 1 2 2 2 7 9 8 8 6 4 4 5 5 4 1 2 1 4 3 2 4 3 1 2 3 3 2 1 1 2 3 1 2 3 2 2 1 2 2 2 3 3 2 3 2 0 1 2 2 2 2 2 2 5 4 1 2 1 2 4 4 3 3 3 5 6 6 7 7
12 11 11 11 11 9 7 7 7 9 9 7 9 12 8 0 3 7 5 3 2 2 5 7 7 10 12 12 13 12 8 7 6 2 2 4 2 4 3 3 2 1 1 2 2 1 1 2 2 0 1 1 0 1 2 0 2 2 3 4 2 2 3 2 2 2 2 2 1 3 4 5 3 3 2 2 3 4 5 5 3 3 4 5 5 6 6
11 11 10 11 12 10 9 8 7 9 9 7 7 10 9 6 6 8 8 5 5 6 10 15 17 22 26 27 26 23 20 19 19 13 6 3 2 2 4 3 1 1 2 3 3 0 0 0 1 1 1 0 1 1 2 3 1 4 1 4 1 3 4 5 3 2 3 4 4 4 3 3 1 3 3 4 6 5 6 7 4 3 4 3 4 6 6
10 10 10 11 12 11 9 8 8 8 9 8 8 8 11 12 10 9 8 6 5 8 16 21 20 20 21 22 21 20 21 23 26 23 13 3 0 1 1 2 1 0 1 3 4 3 2 1 2 2 1 1 1 1 2 2 2 3 1 2 1 2 3 4 3 2 2 2 1 1 2 4 5 5 4 5 7 5 5 7 5 4 4 4 5 6 5
10 9 10 11 11 10 8 8 8 8 9 10 9 10 13 13 9 9 8 3 1 3 8 9 7 7 9 12 17 19 17 17 21 23 15 4 3 1 1 1 1 2 1 2 3 3 3 1 0 2 1 2 2 3 1 1 2 2 2 2 1 0 3 4 4 3 3 2 0 1 4 4 5 7 7 7 7 5 5 6 5 4 5 5 5 6 6
9 9 9 10 9 8 7 8 7 8 9 10 9 10 12 9 4 5 6 3 1 1 2 3 5 6 10 16 19 18 15 13 14 15 13 6 2 4 3 2 3 5 4 3 2 4 3 0 1 2 1 1 1 2 1 2 2 2 3 2 2 1 3 5 4 3 3 3 4 3 5 4 4 5 6 5 7 6 5 5 5 5 5 5 5 6 5
9 8 8 8 8 7 7 7 7 8 9 10 11 12 13 12 8 5 5 5 2 2 2 3 6 8 14 19 20 18 16 15 16 14 9 7 3 5 7 4 5 6 4 2 3 4 3 2 2 2 1 1 2 2 2 2 2 2 3 4 4 3 4 4 4 4 4 3 3 4 6 5 5 5 5 4 6 6 7 7 7 8 8 7 7 7 6
9 8 8 7 7 7 7 6 7 8 8 9 11 13 15 16 12 9 8 5 2 1 2 2 5 10 16 18 18 20 19 16 16 13 7 6 5 7 9 7 4 4 4 4 3 2 3 2 0 2 2 2 2 2 2 2 2 3 2 2 2 5 4 3 5 5 3 3 4 5 6 4 2 3 5 5 6 8 8 8 8 8 8 8 9 9 9
9 9 8 7 6 6 6 6 7 7 7 9 12 16 18 17 14 12 10 7 4 2 2 2 5 10 13 14 16 20 20 17 17 14 9 13 14 12 10 7 4 3 4 3 1 1 3 1 2 2 2 2 1 0 1 1 3 2 0 2 1 5 6 6 7 6 5 7 7 6 6 4 4 5 6 5 6 8 9 8 8 7 7 8 9 9 9
9 9 8 8 7 6 6 6 7 7 8 10 13 15 14 11 8 9 9 8 7 5 3 3 4 5 7 11 17 20 20 17 17 13 5 12 15 13 9 6 5 4 3 4 3 2 2 2 2 1 1 2 2 0 1 2 2 1 3 4 3 3 8 10 9 6 4 6 8 7 7 6 5 6 6 6 7 9 8 6 7 7 8 10 9 8 9
8 9 9 8 7 6 6 7 7 8 9 10 10 8 5 4 3 2 5 5 7 7 2 2 3 3 5 8 11 15 17 16 15 14 9 3 4 8 9 7 4 3 4 3 2 2 2 2 0 1 1 2 4 2 0 2 1 2 4 5 3 4 7 8 8 8 6 7 7 7 8 7 5 5 6 6 9 10 7 6 8 9 10 13 11 9 11
8 10 10 8 8 6 7 8 8 7 9 8 4 1 0 1 2 6 7 4 4 5 2 1 2 3 5 5 6 9 11 10 9 9 10 10 7 2 7 7 2 2 4 3 2 2 2 2 1 0 2 2 4 3 2 3 2 2 3 3 2 6 7 5 5 8 10 9 8 8 8 7 7 7 5 5 9 12 8 6 10 13 14 15 14 13 14
8 10 10 8 8 8 8 8 7 7 9 10 8 7 6 4 5 8 5 2 1 3 1 1 2 2 3 4 4 6 7 6 6 5 6 8 8 6 3 3 2 2 3 3 1 1 2 2 2 1 1 1 3 3 3 4 3 4 3 2 3 5 7 6 6 8 10 12 12 10 7 5 6 7 6 5 9 13 10 8 12 17 17 16 16 16 17
8 10 9 7 8 9 8 7 7 8 11 13 15 16 15 10 7 8 4 5 4 3 1 0 1 2 3 3 4 8 8 5 4 5 5 5 5 4 3 3 2 3 3 2 1 2 1 1 3 1 1 1 3 4 2 2 4 5 5 5 5 6 7 7 7 7 8 9 10 10 9 7 7 9 10 9 10 13 12 11 12 15 15 13 11 12 14
9 9 9 7 7 8 8 8 9 9 10 11 12 12 11 10 8 12 12 8 4 2 1 0 1 2 3 2 3 6 6 4 2 2 3 5 5 4 2 4 3 3 2 2 0 1 2 1 3 2 1 1 3 3 0 3 5 6 5 5 6 7 8 7 6 6 6 5 6 7 9 10 10 11 10 9 9 10 10 10 11 10 9 7 6 8 12
8 8 8 7 7 9 10 10 10 8 7 7 8 7 6 4 4 11 15 11 3 1 1 1 1 1 2 2 3 5 5 4 2 1 0 2 4 3 1 2 3 1 1 1 1 1 1 0 3 2 1 1 2 1 3 5 7 8 7 6 6 7 8 6 4 4 5 6 7 8 10 12 12 10 8 7 7 7 6 7 8 9 7 6 6 8 11
7 8 7 6 7 8 9 8 8 7 5 4 4 3 1 2 3 8 14 12 5 1 1 0 1 2 1 0 2 4 4 2 1 2 2 2 3 2 1 2 1 2 2 1 1 1 3 1 2 1 1 1 2 3 5 8 9 8 8 8 7 6 7 8 7 6 7 9 10 9 10 12 11 8 7 7 7 7 7 7 8 9 8 7 6 6 8
6 7 6 4 4 5 5 5 6 7 6 3 2 2 2 5 5 5 7 7 5 3 1 1 1 3 2 1 2 2 1 1 1 2 3 2 1 2 2 1 1 1 2 2 1 3 3 0 3 3 2 3 4 5 6 9 9 8 8 8 6 6 8 8 9 10 10 10 10 8 8 9 8 6 6 6 6 6 7 7 8 9 9 7 6 7 9
5 4 3 2 2 2 2 3 3 4 5 3 2 2 3 3 2 2 2 2 2 2 2 1 2 3 1 0 2 1 1 1 1 2 2 2 1 1 2 1 1 1 1 1 3 2 1 2 2 3 2 3 4 3 5 8 8 8 8 8 7 7 9 9 10 12 11 8 8 7 7 8 7 6 7 7 6 7 8 8 10 12 13 11 10 11 13
2 2 1 2 2 2 1 1 1 3 4 3 2 1 1 1 1 1 1 1 2 1 1 2 3 3 3 2 3 3 1 2 2 2 1 1 0 1 1 1 1 1 1 1 3 1 1 2 1 2 1 3 3 2 3 6 7 6 7 8 7 9 10 9 10 13 12 9 9 9 9 9 8 7 6 6 6 7 10 12 14 15 15 15 15 15 14
3 3 2 2 2 3 4 3 1 2 1 1 1 1 0 0 1 1 2 1 1 1 2 3 3 3 5 5 3 3 1 1 3 3 2 1 1 1 1 0 1 1 1 2 3 1 2 1 1 1 2 4 4 3 3 6 6 6 6 7 9 11 12 10 10 14 13 10 11 12 12 12 12 10 9 8 8 7 8 11 14 17 17 17 17 16 14
1 2 2 3 5 7 7 2 2 1 1 1 0 0 1 0 1 1 1 1 1 2 2 3 3 3 4 5 4 3 2 1 2 3 2 0 0 1 2 1 1 1 1 3 2 1 2 1 1 2 4 5 5 4 4 6 6 5 6 7 9 12 13 11 12 16 15 10 8 11 14 15 15 14 13 13 11 10 10 11 14 17 18 18 17 15 14
3 4 6 8 9 7 4 1 1 0 1 1 1 1 1 2 2 1 1 2 2 3 2 3 4 4 5 5 4 2 2 1 2 3 2 0 1 1 1 1 1 1 1 2 0 2 1 1 2 3 5 6 6 5 5 6 7 6 7 8 9 11 12 10 9 13 17 15 12 12 15 17 16 16 17 18 17 15 15 16 17 18 19 19 18 17 16
5 5 6 6 5 2 0 1 0 0 1 2 1 1 2 2 1 1 2 2 2 2 2 2 2 2 3 4 2 1 1 2 2 3 2 1 1 0 1 1 1 1 2 0 2 2 1 3 3 4 5 5 6 6 5 6 6 6 7 8 11 14 16 14 12 14 18 20 19 18 19 20 18 18 21 24 22 19 18 19 21 21 21 21 20 18 16
3 2 1 1 1 1 1 1 1 1 1 1 1 1 2 2 2 2 2 2 2 2 2 2 3 3 3 3 2 2 2 2 2 2 1 2 1 1 1 1 2 1 0 1 1 1 3 3 4 4 3 4 5 6 6 6 7 7 6 8 12 17 18 17 16 15 15 18 20 21 21 22 21 20 21 23 24 22 20 20 22 22 22 20 20 18 15
1 1 1 1 2 1 1 0 1 1 1 2 2 2 3 3 2 1 2 2 2 2 4 3 2 4 4 2 1 2 2 2 2 2 2 2 1 1 1 2 2 1 1 1 1 2 3 3 3 3 5 6 6 6 6 6 7 8 8 8 11 13 14 14 13 12 12 15 19 20 20 21 21 21 20 21 23 24 23 21 21 21 20 19 19 17 14
1 1 2 2 1 1 0 1 1 1 2 3 3 3 4 4 3 2 3 2 1 2 4 4 1 3 4 3 1 2 2 2 2 2 2 2 2 1 1 1 2 1 1 1 2 3 4 5 4 5 7 7 6 6 7 7 7 8 9 9 9 11 12 14 13 13 14 16 19 19 19 20 21 21 21 21 22 23 23 21 20 19 19 19 18 16 14
1 1 2 2 1 1 1 2 3 3 3 3 3 4 5 4 3 2 1 1 2 3 3 2 0 2 4 3 2 2 2 2 2 1 1 2 1 1 1 2 1 1 2 3 4 4 4 4 4 5 6 6 7 7 7 7 7 9 10 10 9 11 13 13 13 13 15 18 18 18 18 20 21 22 21 21 21 21 21 20 18 17 17 18 16 14 13
1 0 1 2 1 1 2 3 3 3 3 3 3 4 3 2 2 3 2 1 1 3 2 2 1 1 1 2 3 2 1 2 1 0 1 2 1 1 2 1 2 2 2 3 4 4 4 4 5 6 6 6 8 8 7 7 9 11 11 11 10 11 12 12 12 14 18 19 19 18 18 20 21 22 22 21 20 20 19 19 17 16 16 16 15 13 12
1 0 1 1 1 2 3 3 3 2 3 3 2 2 2 1 2 4 3 0 1 2 1 1 1 0 1 0 2 1 1 1 1 1 1 2 2 1 1 2 3 3 3 3 4 4 4 4 5 6 6 6 7 7 7 8 9 10 11 12 12 14 14 14 15 18 20 21 20 20 20 21 21 22 21 21 20 19 19 17 16 15 14 14 13 13 12
1 0 1 1 1 2 2 0 1 2 3 3 3 2 2 2 3 3 2 1 1 1 2 2 1 1 0 1 2 1 1 1 2 2 1 1 2 2 2 2 3 4 4 4 4 4 4 4 5 6 7 7 7 7 8 8 8 9 12 14 16 17 19 19 20 20 21 22 23 23 22 21 21 21 21 21 22 21 19 17 15 14 13 12 12 12 12
1 1 1 2 2 2 2 1 2 3 4 4 4 3 2 1 3 3 2 2 1 2 2 0 0 2 2 2 1 1 1 0 2 3 2 2 2 2 3 3 4 4 4 4 4 4 4 5 6 6 7 7 7 7 8 9 10 11 14 17 18 19 20 21 22 22 21 22 24 23 22 21 22 23 24 24 24 22 19 17 15 14 13 12 11 11 10
1 1 2 3 3 3 3 3 3 4 5 4 4 3 2 3 4 3 3 3 2 1 2 1 1 3 2 1 1 1 1 1 2 2 2 2 2 3 4 5 5 4 4 3 3 4 4 4 5 7 8 7 7 8 9 9 11 13 16 18 19 19 20 21 21 22 22 21 22 23 23 23 25 25 24 23 22 19 16 15 15 13 12 11 11 10 10
Wind_Direction
336 337 341 344 345 346 350 356 360 359 1 3 1 357 353 109 285 280 297 312 209 147 133 277 222 244 258 259 252 245 253 259 250 295 54 68 42 11 33 72 57 22 226 122 43 61 107 11 109 144 324 333 258 280 343 35 42 61 45 311 317 20 46 12 317 297 294 295 301 334 15 34 40 353 3 16 333 204 165 175 166 129 134 124 83 292 267
336 338 343 346 346 347 350 356 2 4 5 3 359 359 5 280 274 283 299 305 246 166 205 238 246 259 275 285 274 263 253 233 207 167 134 133 101 61 273 44 68 234 236 163 141 163 105 354 329 108 112 299 288 320 4 35 67 84 185 221 317 322 23 31 12 355 339 339 349 350 1 25 30 303 328 2 351 330 237 138 104 130 181 157 136 214 252
336 340 344 346 346 347 349 354 2 4 1 359 356 343 278 307 269 266 294 298 192 180 194 181 218 262 285 282 282 284 275 223 168 160 153 145 132 132 220 322 339 271 259 36 46 91 123 179 332 5 14 331 320 9 12 13 75 108 221 156 100 102 125 90 77 64 14 334 328 316 321 336 329 313 343 10 360 335 286 136 116 161 190 159 147 212 258
339 341 343 345 346 347 347 351 360 1 355 351 345 298 254 352 312 281 307 320 76 226 247 138 186 272 295 291 285 283 279 280 196 152 126 123 139 140 177 2 359 346 35 44 24 25 56 103 57 23 2 326 305 26 23 6 12 355 331 102 89 85 102 111 134 160 206 212 251 276 277 303 345 4 9 14 1 344 37 120 175 182 158 175 213 207 210
341 342 342 344 347 347 348 349 356 359 351 344 339 300 191 17 276 316 345 325 353 358 344 19 14 296 297 291 280 286 273 227 237 57 78 174 151 124 138 109 57 21 74 65 22 10 13 32 58 23 322 309 309 354 24 1 0 6 357 14 87 74 6 133 147 203 251 160 340 320 314 13 32 29 16 10 11 15 37 69 241 188 147 193 242 193 144
341 343 342 343 348 349 348 347 352 358 348 336 332 287 236 246 266 5 27 291 320 6 324 332 334 308 304 284 269 281 264 206 208 12 168 185 140 100 53 57 89 134 121 104 55 18 21 13 11 345 343 359 344 346 346 334 4 19 6 351 89 103 282 256 121 28 0 52 20 336 340 56 37 30 17 7 22 30 27 349 305 257 159 190 174 100 86
340 342 341 343 350 351 348 348 353 358 351 337 323 210 280 334 322 336 6 319 268 269 287 307 319 309 306 292 266 267 257 226 216 197 157 146 94 105 112 69 72 87 106 114 115 110 95 12 305 268 331 1 10 350 322 319 3 34 9 327 55 108 268 294 89 55 17 54 39 338 5 55 41 23 11 5 25 39 30 360 348 20 79 91 90 85 70
339 341 341 343 351 353 349 350 355 1 2 351 330 123 10 10 316 322 349 323 279 270 295 321 326 313 304 287 283 287 295 283 203 142 123 136 147 113 120 118 92 83 90 101 98 197 171 168 211 196 115 0 277 212 249 278 336 12 6 307 16 90 284 310 69 65 357 47 71 334 15 60 50 22 8 6 16 31 29 9 357 26 63 79 86 83 65
339 342 344 346 352 353 351 353 356 4 13 11 354 22 7 328 299 317 340 294 295 296 304 331 331 307 304 335 331 331 330 327 322 274 145 153 162 150 137 128 87 64 74 73 38 119 157 166 206 187 162 195 220 211 196 195 265 342 342 352 15 80 277 338 59 73 322 345 41 244 207 72 45 18 4 3 12 32 41 29 13 14 31 64 74 73 64
340 342 345 349 350 350 352 356 358 4 16 24 18 359 3 353 328 340 59 242 294 311 303 321 316 278 309 348 336 317 326 335 335 319 284 154 148 146 136 121 90 61 80 90 100 157 157 176 193 174 176 206 212 224 232 193 163 159 327 21 328 157 89 41 67 92 282 316 336 265 175 66 27 345 337 342 3 51 55 42 34 27 20 40 63 73 101
341 340 342 346 345 347 354 359 0 7 18 23 14 334 358 5 330 331 44 215 282 316 319 301 280 321 338 341 331 323 337 340 330 284 236 58 127 129 118 109 102 98 139 188 198 146 147 173 62 82 61 275 247 245 254 248 199 165 150 70 321 55 90 110 105 104 272 304 342 28 63 57 271 277 321 331 32 71 69 52 38 42 51 47 41 55 67
341 338 337 339 338 343 353 359 2 4 13 16 2 327 346 356 319 296 63 146 274 303 310 289 305 332 332 331 332 334 334 327 314 255 170 145 114 119 111 105 111 148 202 181 90 64 47 14 5 353 348 336 318 326 347 319 302 201 139 123 103 71 87 110 81 93 241 321 19 55 87 207 217 192 241 289 85 90 87 75 51 50 64 64 47 38 41
340 336 332 333 332 337 350 358 359 356 357 0 347 330 345 356 335 260 115 160 257 280 304 309 313 327 332 331 335 332 322 325 332 336 152 146 125 121 114 111 136 176 175 106 77 63 48 21 359 321 327 349 354 5 11 352 331 325 48 100 117 119 113 115 71 55 1 36 50 108 196 261 264 154 97 297 293 79 72 63 45 36 53 74 87 63 43
336 332 331 331 327 331 346 350 351 346 345 347 337 327 338 352 326 271 346 133 242 288 320 315 313 335 342 329 328 332 328 337 350 352 337 148 118 117 108 109 132 140 121 90 66 58 69 42 16 350 339 1 12 347 327 329 329 322 329 70 121 129 133 107 60 33 107 104 86 177 30 318 308 305 328 318 301 285 86 79 47 29 41 64 98 100 79
332 331 333 333 329 330 342 342 341 339 339 342 332 320 325 341 274 249 279 117 271 294 267 207 323 348 339 320 320 334 332 337 348 340 324 329 105 122 120 121 122 111 90 80 71 69 81 68 49 40 339 354 12 289 305 333 318 301 300 107 110 122 155 150 120 88 101 98 70 37 89 248 258 252 252 263 270 253 185 121 34 19 66 79 97 104 93
328 330 335 338 336 336 338 336 335 335 334 339 338 327 329 24 10 268 260 226 108 266 258 271 354 334 302 298 313 321 309 301 317 346 341 331 335 118 114 113 110 102 89 77 79 86 83 89 145 155 201 196 170 256 291 341 315 312 358 56 62 58 66 106 103 79 81 102 117 158 182 219 234 247 260 269 270 256 162 81 9 330 72 87 112 123 341
324 328 333 337 336 333 336 336 336 336 332 337 342 334 324 10 5 323 273 154 124 250 277 314 345 326 301 325 324 313 295 293 306 74 5 291 299 5 60 80 79 87 98 92 64 78 96 128 129 119 226 210 138 154 255 233 328 312 344 31 48 47 34 55 84 100 99 101 133 197 222 244 240 242 253 264 280 300 85 71 295 249 154 130 145 110 29
319 323 326 327 323 322 332 339 338 332 326 331 337 327 314 340 5 335 308 81 179 248 276 327 3 320 284 317 306 292 311 318 330 58 272 272 296 317 300 85 42 34 79 94 86 97 117 183 187 144 220 253 124 139 225 166 176 258 293 52 50 42 31 52 101 130 116 100 130 237 264 250 236 243 256 272 351 48 95 179 231 193 155 156 160 140 124
314 316 319 321 316 309 322 338 338 331 327 334 339 325 312 339 354 322 276 222 195 226 286 320 330 277 275 307 306 295 311 309 320 35 347 306 267 273 308 27 55 24 53 85 105 122 128 229 239 139 149 264 211 154 188 186 198 219 129 98 89 78 46 31 93 131 133 119 122 327 291 252 223 244 279 316 61 84 179 201 189 157 155 160 166 188 194
311 312 313 316 310 296 301 325 334 334 332 338 340 328 316 20 41 15 349 235 260 281 282 283 267 255 274 301 289 289 310 306 307 79 332 260 250 50 29 1 348 31 48 77 121 168 148 216 251 128 133 222 217 141 177 239 242 198 148 140 168 152 132 67 179 154 118 76 88 94 263 249 217 214 318 357 133 181 190 153 120 135 141 137 145 168 175
308 308 308 313 309 292 279 295 321 332 331 332 335 328 316 172 51 10 350 292 261 266 277 276 267 272 282 278 268 267 268 261 262 269 249 262 294 80 124 211 230 87 99 121 149 221 176 187 225 178 131 219 293 97 150 172 307 255 151 124 136 155 140 169 204 178 122 117 175 187 229 253 224 153 185 195 159 161 145 122 108 102 100 102 115 132 146
307 307 308 314 312 295 271 273 303 322 321 321 323 316 301 288 315 340 333 293 239 236 267 282 286 286 283 279 273 266 257 253 256 255 249 272 329 81 144 172 165 171 167 123 106 105 12 144 180 120 80 108 50 14 149 131 253 283 73 92 162 211 174 161 164 161 150 172 212 224 248 292 8 119 147 129 112 119 126 121 116 106 102 107 114 121 138
305 307 312 315 313 301 273 263 283 303 310 315 311 297 295 302 319 341 332 289 253 258 269 274 281 283 279 279 284 281 268 259 257 254 247 234 1 335 131 127 129 19 89 116 139 153 146 183 169 129 143 205 129 59 35 95 193 233 93 69 226 198 145 120 109 114 115 96 319 333 35 32 50 68 78 94 101 107 109 106 110 122 122 123 123 124 135
302 308 319 317 312 307 284 265 272 285 298 306 301 291 295 303 327 354 347 311 261 303 282 271 271 269 272 294 312 311 292 270 261 257 250 215 108 115 255 210 142 73 62 176 171 131 119 197 139 99 145 224 142 121 97 92 182 188 108 49 321 163 89 86 100 116 100 76 1 89 76 63 65 72 72 78 82 83 91 101 117 130 119 120 126 123 122
300 308 319 315 310 309 294 273 267 274 288 298 294 288 290 294 326 3 339 301 251 306 309 296 266 270 304 319 318 315 311 308 302 285 265 247 156 151 185 200 109 113 146 185 110 79 86 87 51 87 188 228 134 148 172 158 173 161 123 146 213 163 92 97 106 101 98 139 182 147 88 54 43 69 83 88 83 78 76 85 97 95 87 90 103 108 112
296 301 311 311 310 316 305 283 270 274 286 295 291 287 289 289 287 282 273 270 260 217 236 280 275 301 333 330 318 318 328 329 324 310 275 252 236 163 162 147 97 103 117 105 84 96 116 115 99 130 212 218 150 165 194 191 173 131 135 189 194 126 106 121 122 91 78 114 150 120 83 49 34 57 76 87 93 88 76 72 75 74 73 71 70 73 84
292 293 298 298 302 312 308 287 274 276 284 291 292 293 294 291 285 271 255 252 263 262 247 250 283 314 325 316 308 321 330 325 319 315 281 233 214 171 152 130 95 90 81 57 48 89 96 76 138 178 198 208 162 161 192 188 137 104 112 224 156 117 121 138 122 119 151 192 177 144 118 100 93 104 99 95 99 93 80 73 68 67 72 77 72 64 62
293 291 289 285 291 303 300 287 282 285 287 292 297 298 293 284 274 264 255 243 232 257 282 262 283 308 313 304 308 322 325 322 329 326 272 217 197 179 160 132 107 104 95 82 65 86 99 130 223 210 196 184 156 273 267 80 64 66 229 267 188 149 161 162 144 152 192 193 176 150 125 132 166 145 119 107 99 90 84 82 79 73 75 80 79 75 65
302 299 286 274 280 296 299 295 296 293 289 298 306 304 299 294 278 256 246 239 236 249 296 311 287 295 307 305 313 319 318 323 340 343 278 206 188 175 162 143 137 137 118 105 113 133 169 209 210 204 191 149 129 312 316 72 67 272 254 275 278 172 161 159 152 145 152 161 163 152 131 140 162 144 121 111 102 97 92 88 85 79 77 79 81 83 83
310 309 293 275 273 291 302 297 292 285 283 296 312 311 307 352 26 169 184 205 228 231 240 340 287 288 306 299 297 302 307 322 347 4 18 53 162 166 155 146 142 122 104 104 125 162 212 242 226 279 284 110 110 115 125 103 114 264 286 309 328 122 141 156 153 139 136 151 156 141 125 130 135 116 102 99 102 102 99 93 93 89 83 83 85 81 83
302 307 299 279 265 275 293 293 289 283 275 280 302 5 229 16 99 142 143 147 208 210 197 316 269 287 305 280 259 280 301 327 353 7 24 28 17 96 136 129 104 74 106 128 168 209 213 209 130 337 317 34 95 128 129 103 112 254 294 324 56 118 128 139 134 127 130 130 117 99 101 118 117 98 88 99 105 105 103 100 99 97 92 92 94 90 85
291 303 301 278 256 265 287 295 291 276 264 262 256 249 256 249 168 155 131 45 293 194 161 330 289 305 304 272 280 319 338 6 18 7 19 25 10 359 41 84 81 76 93 111 126 250 232 187 144 146 282 31 80 96 97 107 149 203 206 144 110 109 113 115 113 118 127 128 118 105 103 123 129 125 134 141 116 107 109 109 103 103 102 98 94 89 85
282 298 302 280 259 267 285 297 292 278 273 273 267 264 268 266 223 201 228 308 299 249 194 148 244 280 281 266 306 344 359 17 22 8 1 359 5 6 354 3 54 59 36 45 149 228 249 122 115 129 290 0 83 94 95 160 185 191 173 143 126 111 106 107 109 119 131 132 129 134 149 161 151 138 136 131 120 120 126 127 116 110 106 100 92 86 84
273 291 303 290 269 273 285 295 295 287 281 278 274 278 291 289 244 216 220 237 263 278 282 139 187 269 298 298 307 336 0 35 56 28 345 333 358 27 0 337 8 40 12 354 301 274 317 52 111 142 274 358 77 93 227 218 178 161 150 141 127 109 97 89 93 114 129 115 106 125 139 137 130 127 126 123 126 133 135 132 127 119 107 101 105 103 96
267 282 296 284 270 279 289 288 282 279 274 267 268 285 313 311 224 195 196 199 186 101 246 229 185 241 312 344 304 310 342 30 52 47 340 332 354 21 70 346 4 12 287 344 30 313 289 146 127 145 223 14 77 136 208 191 169 151 140 142 138 120 110 108 109 119 122 112 107 115 124 125 126 129 131 133 134 127 114 117 130 130 119 118 125 117 109
269 280 290 276 267 280 286 272 254 244 234 237 268 293 349 99 138 172 187 197 207 204 210 179 141 197 219 207 263 292 324 22 39 14 33 19 355 0 64 61 20 278 292 15 44 273 261 203 120 111 209 180 186 213 191 167 162 157 149 154 159 140 130 138 143 129 112 111 116 121 125 127 130 131 132 137 136 121 107 109 121 126 127 131 129 116 110
281 285 286 272 269 276 263 241 232 222 203 195 288 309 138 123 115 146 180 206 236 234 182 81 250 225 211 204 244 280 332 26 33 38 52 56 18 334 353 38 185 263 343 11 228 242 258 207 111 126 183 212 224 219 182 159 160 162 156 160 162 137 129 138 135 121 111 109 113 115 116 121 126 130 132 132 124 111 110 114 120 125 129 131 126 118 116
287 277 265 258 267 252 211 218 235 223 209 225 297 285 193 158 124 136 178 194 222 216 164 140 233 240 214 232 263 268 87 73 40 52 65 64 42 320 328 351 220 260 3 290 248 242 325 4 73 129 191 258 261 222 180 167 169 166 157 161 159 140 137 144 136 127 125 127 130 132 129 127 133 142 141 133 122 113 115 118 118 120 122 124 125 123 120
260 228 227 231 234 247 298 326 271 214 216 238 267 248 198 177 143 214 225 180 167 195 188 182 210 213 183 204 267 275 190 113 84 80 84 81 215 257 304 316 294 349 82 261 276 329 54 324 339 118 186 277 276 224 167 159 166 166 157 156 154 145 144 149 145 143 146 153 157 157 150 142 144 148 139 127 120 118 119 118 116 118 120 122 123 121 117
208 227 234 202 219 292 324 343 179 189 213 246 219 189 3 328 175 197 220 203 183 204 201 194 208 205 179 179 226 269 262 134 125 129 136 167 207 187 106 254 271 64 102 249 275 57 111 226 272 148 204 243 244 228 162 143 157 169 159 150 151 149 147 147 150 150 148 147 151 156 154 145 141 140 137 135 133 128 124 124 124 125 124 122 120 119 118
246 261 271 303 312 313 321 349 136 154 35 29 186 128 39 246 240 233 197 182 223 245 205 174 187 214 194 177 185 216 234 162 116 113 106 99 198 126 133 201 228 85 152 245 265 61 94 139 195 217 226 223 216 209 162 142 151 163 153 146 147 145 140 139 146 148 143 133 132 142 142 138 136 136 138 138 135 129 125 122 120 120 118 115 112 112 112
297 302 306 311 311 307 311 349 117 117 54 64 26 316 250 216 240 268 194 178 214 241 217 177 184 201 189 167 162 180 186 142 91 84 95 214 249 162 145 152 72 84 218 239 339 47 66 187 213 244 241 214 196 188 164 150 153 158 151 145 142 139 135 131 133 139 136 128 120 122 124 124 125 127 127 123 118 115 114 112 108 107 108 107 106 104 103
275 286 301 310 306 283 261 341 307 73 66 70 63 328 279 260 234 215 224 233 238 234 220 200 198 193 171 153 131 84 112 132 103 80 101 210 246 179 113 95 105 194 214 179 72 89 197 210 216 234 232 206 187 181 171 158 151 148 144 138 132 130 127 121 116 120 123 121 119 117 115 112 112 117 119 117 112 107 105 105 107 107 106 104 100 98 98
282 257 256 299 287 172 84 353 290 211 165 146 145 173 240 253 228 200 220 259 279 273 255 222 182 169 173 173 131 95 123 144 109 91 144 218 217 144 145 188 207 194 117 47 71 183 212 222 226 222 208 184 177 174 167 156 147 140 132 125 123 122 120 116 114 113 115 116 115 113 110 108 108 110 112 113 113 111 106 106 109 110 108 103 98 94 94
309 163 132 28 335 355 86 26 284 247 208 210 207 201 206 207 194 198 222 223 222 281 296 289 206 163 177 193 155 137 157 146 122 141 180 186 143 137 198 197 177 118 92 145 206 218 229 240 235 198 171 172 176 170 160 154 148 138 127 120 122 122 121 119 118 118 119 119 117 114 112 111 110 108 107 109 113 114 113 112 114 113 109 104 98 93 90
255 185 111 95 307 279 144 143 220 227 214 213 211 212 215 209 198 212 228 219 197 267 283 288 234 163 177 187 165 144 143 124 129 169 163 121 126 218 228 134 106 82 97 190 213 225 230 233 226 193 175 174 170 158 152 150 144 133 127 129 131 129 125 125 125 125 126 125 121 118 117 116 114 112 110 108 109 111 113 114 116 115 110 104 100 96 94
268 291 99 113 222 265 214 193 211 220 225 224 219 222 227 222 213 224 229 211 232 262 277 293 262 188 185 168 145 151 149 124 125 166 120 109 138 262 15 71 136 191 188 199 218 230 233 229 213 192 179 165 150 145 146 142 135 130 130 133 135 132 128 126 126 126 127 125 122 120 120 120 119 117 114 110 109 111 113 113 112 111 109 107 106 104 101
253 218 148 160 192 212 212 213 222 236 250 257 257 256 255 251 257 269 269 244 271 302 337 20 18 275 209 149 138 163 169 110 97 146 113 102 104 40 38 58 225 226 202 196 209 222 230 217 191 177 171 157 146 146 146 141 135 134 134 136 138 136 132 129 128 127 127 124 123 123 125 125 123 122 119 115 114 115 115 114 113 113 113 113 112 110 107
274 281 179 192 226 250 233 205 191 233 263 278 296 316 348 350 268 255 247 236 309 295 296 100 104 227 257 194 115 127 175 137 117 123 65 79 104 151 173 189 216 233 231 216 212 218 223 202 165 151 152 152 146 143 144 141 138 138 139 141 141 138 132 129 129 128 127 126 127 130 130 128 126 125 123 120 119 120 121 121 119 119 120 121 119 117 115
261 207 209 214 272 296 295 79 89 303 303 327 337 326 341 348 301 270 228 177 232 308 356 35 72 93 312 11 60 68 261 228 126 114 122 158 169 181 190 200 215 226 228 221 214 208 195 167 145 144 152 152 145 142 142 140 139 140 141 140 138 135 133 132 132 130 129 130 132 133 134 134 133 131 129 128 127 127 127 126 126 127 129 130 129 127 127
247 236 251 238 239 265 291 333 333 297 294 302 300 280 260 288 285 262 207 159 92 53 51 23 42 67 56 52 86 140 249 227 106 119 175 210 189 174 191 218 227 225 224 224 214 192 172 157 150 151 153 149 144 143 142 139 137 139 140 138 135 133 133 133 133 131 131 132 133 134 136 139 140 138 135 134 132 128 126 130 135 137 136 139 142 142 140
186 217 257 250 240 246 256 262 268 264 258 259 259 243 219 247 263 237 152 115 96 121 170 185 95 79 86 157 180 143 78 72 119 151 191 224 218 190 197 217 225 210 199 205 197 168 156 157 155 152 152 151 148 142 138 137 138 140 139 138 135 134 134 135 135 133 131 130 130 131 133 137 140 140 139 137 134 131 132 139 145 146 147 153 159 158 150